Buckhannon, WV

7:10 AM EDT on June 27, 2017 (GMT -0400)
Buckhannon

Weather History for KW22 - December, 2013

Change the Weather History Date:

Thursday, December 5, 2013

  Actual Average (KCKB) Record (KCKB)
Temperature  
Mean Temperature 58 °F -  
Max Temperature 69 °F 46 °F 71 °F (1982)
Min Temperature 48 °F 27 °F 8 °F (1940)
Degree Days  
Heating Degree Days 6    
Growing Degree Days 8 (Base 50)    
Moisture  
Dew Point 53 °F    
Average Humidity 76    
Maximum Humidity 100    
Minimum Humidity 56    
Precipitation  
Precipitation 0.84 in - - ()
Sea Level Pressure  
Sea Level Pressure 29.95 in    
Wind  
Wind Speed 7 mph (SSW)    
Max Wind Speed 21 mph    
Max Gust Speed 28 mph    
Visibility 8 miles    
Events Fog , Rain    
Averages and records for this station are not official NWS values.
T = Trace of Precipitation, MM = Missing Value Source: NWS Daily Summary

Daily Weather History Graph

Daily Weather History Graph

Search for Another Location

Airport or City:

Trip Planner

Search our weather history database for the weather conditions in past years. The results will help you decide how hot, cold, wet, or windy it might be!

Date:

Astronomy

Dec. 05, 2013 Rise Set
Actual Time 7:24 AM EST 4:58 PM EST
Civil Twilight 6:55 AM EST 5:28 PM EST
Nautical Twilight 6:22 AM EST 6:01 PM EST
Astronomical Twilight 5:49 AM EST 6:33 PM EST
Moon 9:44 AM EST (12/5) 8:16 PM EST (12/5)
Length of Visible Light 10h 33m
Length of Day
9h 33m
Waxing Crescent, 10% of the Moon is Illuminated
Dec 5
Waxing Crescent
Dec 9
First Quarter
Dec 17
Full
Dec 25
Last Quarter
Jan 1
New

Hourly Weather History & Observations

Time (EST) Temp. Dew Point Humidity Pressure Visibility Wind Dir Wind Speed Gust Speed Precip Events Conditions
12:15 AM 55.4 °F 46.4 °F 72% 29.95 in 10.0 mi South 4.6 mph - N/A   Clear
12:35 AM 57.2 °F 46.4 °F 67% 29.95 in 10.0 mi South 4.6 mph - N/A   Clear
12:55 AM 57.2 °F 46.4 °F 67% 29.95 in 10.0 mi South 5.8 mph - N/A   Clear
1:15 AM 57.2 °F 46.4 °F 67% 29.94 in 10.0 mi South 5.8 mph - N/A   Clear
1:35 AM 55.4 °F 46.4 °F 72% 29.94 in 10.0 mi South 6.9 mph - N/A   Clear
1:55 AM 55.4 °F 46.4 °F 72% 29.94 in 10.0 mi South 5.8 mph - N/A   Clear
2:15 AM 55.4 °F 46.4 °F 72% 29.94 in 10.0 mi South 6.9 mph - N/A   Clear
2:35 AM 57.2 °F 48.2 °F 72% 29.96 in 10.0 mi South 8.1 mph - N/A   Partly Cloudy
2:55 AM 57.2 °F 48.2 °F 72% 29.96 in 10.0 mi South 6.9 mph - N/A   Mostly Cloudy
3:15 AM 57.2 °F 48.2 °F 72% 29.97 in 10.0 mi SSW 5.8 mph - N/A   Overcast
3:35 AM 57.2 °F 48.2 °F 72% 29.96 in 10.0 mi South 9.2 mph - N/A   Mostly Cloudy
3:55 AM 57.2 °F 48.2 °F 72% 29.95 in 10.0 mi SSW 10.4 mph 16.1 mph N/A   Partly Cloudy
4:15 AM 59.0 °F 48.2 °F 67% 29.95 in 10.0 mi South 9.2 mph - N/A   Scattered Clouds
4:35 AM 59.0 °F 48.2 °F 67% 29.95 in 10.0 mi South 6.9 mph - N/A   Scattered Clouds
4:55 AM 60.8 °F 50.0 °F 68% 29.95 in 10.0 mi SSW 8.1 mph - N/A   Mostly Cloudy
5:15 AM 60.8 °F 50.0 °F 68% 29.95 in 10.0 mi South 6.9 mph - N/A   Partly Cloudy
5:35 AM 60.8 °F 50.0 °F 68% 29.95 in 10.0 mi South 6.9 mph - N/A   Partly Cloudy
5:55 AM 60.8 °F 50.0 °F 68% 29.95 in 10.0 mi South 8.1 mph - N/A   Scattered Clouds
6:15 AM 60.8 °F 50.0 °F 68% 29.95 in 10.0 mi South 6.9 mph - N/A   Partly Cloudy
6:35 AM 60.8 °F 51.8 °F 72% 29.95 in 10.0 mi South 9.2 mph - N/A   Clear
6:55 AM 60.8 °F 51.8 °F 72% 29.96 in 10.0 mi South 9.2 mph - N/A   Partly Cloudy
7:15 AM 60.8 °F 51.8 °F 72% 29.96 in 10.0 mi South 9.2 mph - N/A   Scattered Clouds
7:35 AM 60.8 °F 51.8 °F 72% 29.96 in 10.0 mi South 9.2 mph - N/A   Mostly Cloudy
7:55 AM 60.8 °F 51.8 °F 72% 29.96 in 10.0 mi South 9.2 mph - N/A   Partly Cloudy
8:15 AM 62.6 °F 51.8 °F 68% 29.97 in 10.0 mi South 10.4 mph - N/A   Partly Cloudy
8:35 AM 62.6 °F 51.8 °F 68% 29.96 in 10.0 mi South 10.4 mph - N/A   Partly Cloudy
8:55 AM 62.6 °F 53.6 °F 72% 29.97 in 10.0 mi South 9.2 mph - N/A   Clear
9:15 AM 64.4 °F 53.6 °F 68% 29.97 in 10.0 mi South 9.2 mph - N/A   Mostly Cloudy
9:35 AM 64.4 °F 53.6 °F 68% 29.97 in 10.0 mi SSW 10.4 mph - N/A   Scattered Clouds
9:55 AM 66.2 °F 53.6 °F 64% 29.96 in 10.0 mi South 12.7 mph 19.6 mph N/A   Scattered Clouds
10:15 AM 66.2 °F 53.6 °F 64% 29.96 in 10.0 mi SSW 12.7 mph 20.7 mph N/A   Scattered Clouds
10:35 AM 66.2 °F 53.6 °F 64% 29.96 in 10.0 mi SSW 13.8 mph 20.7 mph N/A   Scattered Clouds
10:55 AM 68.0 °F 53.6 °F 60% 29.96 in 10.0 mi South 15.0 mph 21.9 mph N/A   Scattered Clouds
11:15 AM 68.0 °F 53.6 °F 60% 29.95 in 10.0 mi SSW 15.0 mph 21.9 mph N/A   Scattered Clouds
11:35 AM 69.8 °F 53.6 °F 56% 29.95 in 10.0 mi SSW 11.5 mph 25.3 mph N/A   Scattered Clouds
11:55 AM 69.8 °F 53.6 °F 56% 29.94 in 10.0 mi SSW 16.1 mph 25.3 mph N/A   Partly Cloudy
12:15 PM 69.8 °F 53.6 °F 56% 29.94 in 10.0 mi SSW 16.1 mph 24.2 mph N/A   Partly Cloudy
12:35 PM 69.8 °F 53.6 °F 56% 29.93 in 10.0 mi SW 15.0 mph 21.9 mph N/A   Partly Cloudy
12:55 PM 69.8 °F 53.6 °F 56% 29.93 in 10.0 mi SSW 20.7 mph 27.6 mph N/A   Partly Cloudy
1:15 PM 69.8 °F 53.6 °F 56% 29.92 in 10.0 mi SSW 16.1 mph 21.9 mph N/A   Partly Cloudy
1:35 PM 69.8 °F 53.6 °F 56% 29.92 in 10.0 mi SSW 9.2 mph - N/A   Scattered Clouds
1:55 PM 69.8 °F 53.6 °F 56% 29.91 in 10.0 mi SW 9.2 mph - N/A   Partly Cloudy
2:15 PM 69.8 °F 53.6 °F 56% 29.91 in 10.0 mi SSW 10.4 mph - N/A   Partly Cloudy
2:35 PM 69.8 °F 53.6 °F 56% 29.91 in 10.0 mi SW 5.8 mph - N/A   Scattered Clouds
2:55 PM 66.2 °F 55.4 °F 68% 29.91 in 7.0 mi West 4.6 mph - N/A   Light Drizzle
3:15 PM 66.2 °F 55.4 °F 68% 29.91 in 10.0 mi Calm Calm - N/A   Partly Cloudy
3:35 PM 66.2 °F 55.4 °F 68% 29.90 in 10.0 mi Calm Calm - N/A   Light Drizzle
3:55 PM 64.4 °F 55.4 °F 73% 29.90 in 10.0 mi Calm Calm - N/A   Scattered Clouds
4:35 PM 64.4 °F 55.4 °F 73% 29.92 in 8.0 mi SSW 5.8 mph - N/A Rain Light Rain
4:55 PM 60.8 °F 60.8 °F 100% 29.94 in 3.0 mi NNW 8.1 mph 24.2 mph 0.02 in   Light Drizzle
5:15 PM 59.0 °F 59.0 °F 100% 29.94 in 6.0 mi NNW 6.9 mph - N/A   Mostly Cloudy
5:35 PM 59.0 °F 59.0 °F 100% 29.96 in 2.0 mi NW 3.5 mph - 0.18 in Rain Rain
5:55 PM 59.0 °F 59.0 °F 100% 29.96 in 2.5 mi Calm Calm - 0.22 in Rain Light Rain
6:15 PM 59.0 °F 59.0 °F 100% 29.96 in 3.0 mi Calm Calm - N/A Rain Light Rain
6:35 PM 57.2 °F 57.2 °F 100% 29.96 in 1.5 mi Calm Calm - 0.01 in Rain Light Rain
6:55 PM 57.2 °F 57.2 °F 100% 29.97 in 0.5 mi Calm Calm - 0.03 in Fog Fog
7:15 PM 57.2 °F 57.2 °F 100% 29.96 in 0.2 mi Calm Calm - 0.02 in Rain Light Rain
7:35 PM 57.2 °F 57.2 °F 100% 29.96 in 0.2 mi Calm Calm - 0.02 in Fog Fog
7:55 PM 57.2 °F 57.2 °F 100% 29.95 in 0.2 mi Calm Calm - 0.02 in Fog Fog
8:15 PM 57.2 °F 57.2 °F 100% 29.94 in 4.0 mi Calm Calm - N/A   Mostly Cloudy
8:35 PM 57.2 °F 57.2 °F 100% 29.94 in 0.2 mi Calm Calm - N/A   Light Drizzle
8:55 PM 57.2 °F 57.2 °F 100% 29.93 in 0.8 mi Calm Calm - N/A   Overcast
9:15 PM 57.2 °F - N/A% 29.94 in 0.5 mi Calm Calm - N/A   Light Drizzle
9:35 PM 53.6 °F 53.6 °F 100% 29.94 in 2.0 mi NW 11.5 mph 16.1 mph 0.23 in Rain Heavy Rain
9:55 PM 53.6 °F 53.6 °F 100% 29.93 in 3.0 mi NNW 11.5 mph 17.3 mph 0.32 in Rain Rain
10:15 PM 51.8 °F 51.8 °F 100% 29.94 in 7.0 mi North 9.2 mph 18.4 mph 0.01 in   Light Drizzle
10:35 PM 51.8 °F 51.8 °F 100% 29.95 in 5.0 mi NW 9.2 mph - 0.02 in Rain Heavy Rain
10:55 PM 50.0 °F 50.0 °F 100% 29.94 in 4.0 mi North 5.8 mph - 0.09 in Rain Light Rain
11:15 PM 50.0 °F 50.0 °F 100% 29.95 in 10.0 mi Calm Calm - N/A Rain Light Rain
11:35 PM 48.2 °F 48.2 °F 100% 29.98 in 9.0 mi West 11.5 mph - 0.04 in   Overcast
11:55 PM 48.2 °F 48.2 °F 100% 30.02 in 4.0 mi NW 15.0 mph 24.2 mph 0.14 in Rain Heavy Rain